User: anonymous   Login
Location: Allonne
(49.4086°N, 2.1143°E)
Time: 19:06:51
(UTC+00:00)
Language:

Cosmos 2322 - Orbit

View from above orbital plane
View from above orbital plane
View from above satellite
View from above satellite

Ground track
Ground track

The orbit data is extracted from the following two-line orbital elements,

1 23704U 95058A   24106.54518505  .00000443  00000-0  25985-3 0  9992
2 23704  70.9867 215.1625 0011478 276.5202  83.4613 14.13602792468099
Epoch (UTC): 15 April 2024 13:05:03
Eccentricity: 0.0011478
inclination: 70.9867°
perigee height: 839 km
apogee height: 855 km
right ascension of ascending node: 215.1625°
argument of perigee: 276.5202°
revolutions per day: 14.13602792
mean anomaly at epoch: 83.4613°
orbit number at epoch: 46809

The dashed part of the orbit path shows where the satellite is in the earth's shadow,  

DLR